Location: Observatorio Las Palmas
(29.0667°N, 110.9333°W)
Time: 08:54:45
(UTC-07:00)

Daily predictions for brighter satellites

Satellite Brightness Start Highest point End
(mag) Time Altitude Azimuth Time Altitude Azimuth Time Altitude Azimuth
H-2A ROCKET BODY 4.3 18:06:24 10° WNW 18:41:17 64° SSW 18:47:09 10° SE
BREEZE-M DEB (TANK) 3.8 18:33:39 10° SSW 18:41:40 47° SE 18:44:43 10° ENE
Cosmos 1782 Rocket 4.0 18:37:37 10° SSW 18:41:59 68° W 18:46:25 10° N
Cosmos 1812 3.4 18:45:55 10° NNE 18:49:24 32° E 18:52:52 10° SE
Orbus 7S 2.8 18:48:38 10° W 18:51:18 65° S 18:54:17 11° E
Cosmos 676 Rocket 4.4 18:47:04 10° S 18:51:52 40° E 18:56:41 10° NNE
Cosmos 407 Rocket 3.5 18:46:58 10° S 18:52:05 63° ESE 18:57:18 10° NNE
Okean 2 Rocket 3.6 18:50:29 10° SSW 18:54:55 67° W 18:59:21 10° N
Cosmos 1992 Rocket 4.0 18:51:31 10° N 18:56:41 58° ENE 19:01:48 10° SSE
ERBS 3.0 18:54:11 10° NNW 18:57:25 35° NE 19:00:37 10° ESE
Cosmos 1709 Rocket 4.3 18:52:26 10° SSE 18:58:19 44° E 19:04:09 10° NNE
FREGAT/IRIS 3.2 18:56:07 10° SE 18:58:57 35° ENE 19:01:48 10° N
COSMO-SKYMED 1 4.5 18:56:20 10° N 19:00:14 33° WNW 19:04:07 10° SW
GPS 2-04 Rocket1 4.1 19:09:09 10° SSW 19:12:46 26° SSE 19:14:46 19° ESE
METEOR-M 4.1 19:07:44 10° SSE 19:13:05 85° ENE 19:18:26 10° N
Cosmos 2151 Rocket 3.5 19:08:38 10° S 19:13:06 85° E 19:17:37 10° N
Cosmos 2360 Rocket 3.7 19:10:58 10° NNE 19:14:20 16° ENE 19:14:35 16° ENE
Cosmos 1980 Rocket 3.1 19:09:49 10° NNW 19:15:21 54° WSW 19:20:51 10° S
SJ-6B 2.8 19:11:55 10° SSE 19:15:58 70° ENE 19:19:58 10° N
NOAA 12 4.2 19:11:30 10° SSE 19:16:48 86° WSW 19:22:08 10° NNW
ALOS 2.5 19:13:20 10° SSE 19:17:47 46° ENE 19:22:13 10° N
SL-8 R/B 4.0 19:17:50 10° NW 19:22:32 50° NE 19:25:07 24° ESE
Cosmos 1140 Rocket 3.6 19:17:52 10° S 19:22:45 47° ESE 19:27:39 10° NNE
Meteor 1-18 Rocket 4.3 19:18:56 10° N 19:24:30 83° W 19:30:07 10° S
TSX-5 3.2 19:21:20 10° SSW 19:24:44 85° WNW 19:27:26 14° NNE
Cosmos 1833 4.1 19:19:13 10° S 19:24:53 69° ESE 19:30:32 10° NNE
BREEZE-M DEB (TANK) 3.9 19:20:03 10° NW 19:25:17 27° NNE 19:26:11 24° NE
Okean 1 Rocket 3.6 19:21:17 10° SSE 19:25:22 36° E 19:29:29 10° NNE
Spot 2 Rocket 3.8 19:22:28 10° SE 19:27:12 43° ENE 19:31:57 10° N
PSLV R/B 2.9 19:25:29 10° NW 19:28:38 75° NNE 19:29:25 46° ESE
FengYun 1-2 T 4.2 19:25:17 10° SSE 19:30:40 62° ENE 19:36:04 10° N
Gbstr 26 Del rocket 2.5 19:28:03 10° SW 19:31:58 70° SE 19:33:19 36° ENE
Cosmos 1461 3.9 19:30:06 10° N 19:33:03 27° NE 19:33:03 27° NE
Cosmos 2292 Rocket 4.1 19:29:48 10° SSW 19:33:56 70° W 19:39:33 10° N
Cosmos 1633 2.4 19:30:39 10° S 19:34:18 79° E 19:37:59 10° N
HJ-1C 3.2 19:31:58 10° SSE 19:35:20 78° ENE 19:38:42 10° N
ASTRO E2 2.6 19:32:15 10° WNW 19:36:17 79° NNE 19:37:26 45° E
Cosmos 1536 3.8 19:35:11 10° SSE 19:37:35 29° SE 19:37:35 29° SE
Cosmos 614 Rocket 4.0 19:34:41 10° S 19:39:37 51° ESE 19:42:48 21° NE
Meteor 1-19 Rocket 4.4 19:36:49 10° N 19:42:16 46° E 19:47:46 10° SSE
Hubble Space Telescope 3.1 19:42:33 10° S 19:43:22 11° SSE 19:43:22 11° SSE
Cosmos 1954 Rocket 4.2 19:39:21 10° SSW 19:44:29 72° WNW 19:49:41 10° N
SL-16 R/B 2.1 19:40:08 10° NNW 19:45:50 88° ENE 19:51:30 10° SSE
Okean 1 4.2 19:48:18 10° NNW 19:52:15 51° W 19:56:11 10° S
Cosmos 44 Rocket 4.3 19:49:17 10° NW 19:53:43 42° WSW 19:58:06 10° S
Cosmos 1340 2.8 19:50:05 10° N 19:53:13 58° N 19:53:13 58° N
Meteor 1-13 Rocket 4.0 19:48:46 10° N 19:54:19 72° E 19:59:56 10° SSE
CENTAUR R/B 4.0 19:51:52 10° NW 19:59:39 50° WSW 20:07:37 10° S
Resurs 01 Rocket 1.9 19:59:23 10° S 20:03:45 65° WSW 20:08:08 10° NNW
Cosmos 2322 Rocket 2.7 19:59:36 10° NNW 20:05:06 58° WSW 20:10:35 10° S
H-2A R/B 3.4 20:09:04 51° WNW 20:09:04 51° WNW 20:12:12 10° NNW
Helios 1B rocket 2.8 20:09:41 42° NNW 20:10:53 63° WNW 20:14:58 10° SSW
GOES 2 Rocket 3.8 20:07:54 10° W 20:11:56 43° SSW 20:11:56 43° SSW
Cosmos 1741 Rocket 4.1 20:16:37 10° SSW 20:21:50 72° WNW 20:22:39 60° NNW
Cosmos 2327 Rocket 4.3 20:16:37 10° S 20:22:45 90° SE 20:29:02 10° N
Meteor 2-4 Rocket 4.2 20:18:34 10° N 20:22:25 46° N 20:22:25 46° N
Cosmos 2184 Rocket 4.4 20:34:00 10° SSW 20:40:16 61° W 20:46:30 10° N
Cosmos 2219 3.8 20:39:05 10° SSW 20:44:23 56° W 20:44:23 56° W
Cosmos 2360 Rocket 3.5 20:53:07 10° NNW 20:56:26 34° NW 20:56:26 34° NW
